When you browse on this site, cookies collect data to enhance your experience and personalize the content and advertising you see.
Visit our Privacy Policy to learn more. By continuing to use the site, you agree to this use of cookies and data.
  • în România
  • Lista ţărilor
  • Pe 7 zile
  • Temperatura apei
  • Meteo pe hartă
  • Widget-uri
  • user-avatar
    Intrare

    Meteo pe oră la Sarajevo

    Astăzi, 20 Septembrie, Vineri

    Timp Temperatura Precipitaţii Vânt Presiune Umiditate
    00:00 +5°C° 0 mm 3 m/s 692 mmHg 71%
    01:00 +4°C° 0 mm 3 m/s 692 mmHg 72%
    02:00 +4°C° 0 mm 3 m/s 692 mmHg 74%
    03:00 +3°C° 0 mm 3 m/s 692 mmHg 75%
    04:00 +3°C° 0 mm 3 m/s 691 mmHg 77%
    05:00 +4°C° 0 mm 3 m/s 692 mmHg 73%
    06:00 +4°C° 0 mm 3 m/s 692 mmHg 70%
    07:00 +5°C° 0 mm 3 m/s 692 mmHg 66%
    08:00 +8°C° 0 mm 3 m/s 692 mmHg 58%
    09:00 +10°C° 0 mm 3 m/s 693 mmHg 50%
    10:00 +12°C° 0 mm 3 m/s 693 mmHg 42%
    11:00 +13°C° 0 mm 3 m/s 693 mmHg 39%
    12:00 +14°C° 0 mm 3 m/s 693 mmHg 37%
    13:00 +16°C° 0 mm 3 m/s 693 mmHg 34%
    14:00 +16°C° 0 mm 3 m/s 693 mmHg 36%
    15:00 +14°C° 0 mm 3 m/s 693 mmHg 38%
    16:00 +14°C° 0 mm 3 m/s 693 mmHg 40%
    17:00 +12°C° 0 mm 3 m/s 692 mmHg 47%
    18:00 +9°C° 0 mm 2 m/s 692 mmHg 55%
    19:00 +7°C° 0 mm 2 m/s 692 mmHg 62%
    20:00 +6°C° 0 mm 2 m/s 692 mmHg 63%
    21:00 +6°C° 0 mm 2 m/s 692 mmHg 64%
    22:00 +5°C° 0 mm 2 m/s 692 mmHg 65%
    23:00 +5°C° 0 mm 2 m/s 692 mmHg 65%

    Mâine, 21 Septembrie, Sâmbătă

    Timp Temperatura Precipitaţii Vânt Presiune Umiditate
    00:00 +5°C° 0 mm 2 m/s 692 mmHg 65%
    01:00 +4°C° 0 mm 2 m/s 693 mmHg 66%
    02:00 +4°C° 0 mm 2 m/s 692 mmHg 66%
    03:00 +4°C° 0 mm 2 m/s 692 mmHg 67%
    04:00 +4°C° 0 mm 2 m/s 692 mmHg 68%
    05:00 +5°C° 0 mm 2 m/s 692 mmHg 65%
    06:00 +6°C° 0 mm 2 m/s 692 mmHg 62%
    07:00 +7°C° 0 mm 2 m/s 693 mmHg 59%
    08:00 +11°C° 0 mm 1 m/s 693 mmHg 51%
    09:00 +14°C° 0 mm 1 m/s 694 mmHg 43%
    10:00 +18°C° 0 mm 1 m/s 694 mmHg 35%
    11:00 +19°C° 0 mm 1 m/s 694 mmHg 34%
    12:00 +21°C° 0 mm 1 m/s 694 mmHg 32%
    13:00 +22°C° 0 mm 1 m/s 694 mmHg 31%
    14:00 +21°C° 0 mm 1 m/s 694 mmHg 33%
    15:00 +21°C° 0 mm 1 m/s 694 mmHg 36%
    16:00 +20°C° 0 mm 1 m/s 693 mmHg 39%
    17:00 +16°C° 0 mm 1 m/s 693 mmHg 47%
    18:00 +13°C° 0 mm 0 m/s 692 mmHg 55%
    19:00 +10°C° 0 mm 0 m/s 692 mmHg 62%
    20:00 +10°C° 0 mm 0 m/s 692 mmHg 62%
    21:00 +10°C° 0 mm 1 m/s 692 mmHg 61%
    22:00 +10°C° 0 mm 1 m/s 692 mmHg 61%
    23:00 +10°C° 0 mm 1 m/s 692 mmHg 61%

    Poimâine, 22 Septembrie, Duminică

    Timp Temperatura Precipitaţii Vânt Presiune Umiditate
    00:00 +10°C° 0 mm 1 m/s 691 mmHg 61%
    01:00 +10°C° 0 mm 1 m/s 691 mmHg 61%
    02:00 +10°C° 0 mm 1 m/s 691 mmHg 60%
    03:00 +9°C° 0 mm 1 m/s 691 mmHg 60%
    04:00 +9°C° 0 mm 1 m/s 691 mmHg 60%
    05:00 +10°C° 0 mm 1 m/s 691 mmHg 58%
    06:00 +11°C° 0 mm 1 m/s 691 mmHg 57%
    07:00 +13°C° 0 mm 1 m/s 691 mmHg 55%
    08:00 +15°C° 0 mm 1 m/s 691 mmHg 48%
    09:00 +19°C° 0 mm 1 m/s 692 mmHg 41%
    10:00 +21°C° 0 mm 1 m/s 692 mmHg 34%
    11:00 +21°C° 0 mm 2 m/s 692 mmHg 34%
    12:00 +23°C° 0 mm 2 m/s 692 mmHg 35%
    13:00 +23°C° 0 mm 2 m/s 692 mmHg 35%
    14:00 +23°C° 0 mm 2 m/s 691 mmHg 38%
    15:00 +21°C° 0 mm 2 m/s 691 mmHg 42%
    16:00 +21°C° 0 mm 1 m/s 690 mmHg 45%
    17:00 +19°C° 0 mm 1 m/s 690 mmHg 50%
    18:00 +16°C° 0 mm 1 m/s 689 mmHg 56%
    19:00 +14°C° 0 mm 1 m/s 689 mmHg 62%
    20:00 +14°C° 0 mm 1 m/s 689 mmHg 61%
    21:00 +14°C° 0 mm 1 m/s 689 mmHg 59%
    22:00 +14°C° 0 mm 2 m/s 689 mmHg 58%
    23:00 +14°C° 0 mm 2 m/s 689 mmHg 58%

    23 Septembrie, Luni

    Timp Temperatura Precipitaţii Vânt Presiune Umiditate
    00:00 +14°C° 0 mm 2 m/s 689 mmHg 58%
    01:00 +13°C° 0 mm 2 m/s 689 mmHg 58%
    02:00 +14°C° 0 mm 2 m/s 688 mmHg 55%
    03:00 +14°C° 0 mm 2 m/s 688 mmHg 52%
    04:00 +14°C° 0 mm 2 m/s 688 mmHg 49%
    05:00 +14°C° 0.1 mm 2 m/s 688 mmHg 54%
    06:00 +13°C° 0.1 mm 2 m/s 687 mmHg 59%
    07:00 +13°C° 0.1 mm 2 m/s 687 mmHg 65%
    08:00 +14°C° 0 mm 2 m/s 687 mmHg 66%
    09:00 +15°C° 0 mm 2 m/s 688 mmHg 68%
    10:00 +16°C° 0 mm 2 m/s 688 mmHg 70%
    11:00 +17°C° 0.1 mm 3 m/s 688 mmHg 72%
    12:00 +17°C° 0.1 mm 3 m/s 687 mmHg 74%
    13:00 +18°C° 0.1 mm 3 m/s 687 mmHg 76%
    14:00 +18°C° 0.6 mm 3 m/s 686 mmHg 81%
    15:00 +17°C° 0.6 mm 3 m/s 686 mmHg 85%
    16:00 +17°C° 0.6 mm 3 m/s 685 mmHg 90%
    17:00 +16°C° 1.4 mm 3 m/s 685 mmHg 92%
    18:00 +16°C° 1.4 mm 2 m/s 684 mmHg 95%
    19:00 +15°C° 1.4 mm 2 m/s 684 mmHg 97%
    20:00 +15°C° 1.2 mm 2 m/s 683 mmHg 96%
    21:00 +15°C° 1.2 mm 2 m/s 683 mmHg 95%
    22:00 +14°C° 1.2 mm 2 m/s 683 mmHg 95%
    23:00 +14°C° 0.7 mm 2 m/s 683 mmHg 95%

    24 Septembrie, Marţi

    Timp Temperatura Precipitaţii Vânt Presiune Umiditate
    00:00 +15°C° 0.7 mm 2 m/s 683 mmHg 96%
    01:00 +15°C° 0.7 mm 2 m/s 683 mmHg 96%
    02:00 +14°C° 1.4 mm 2 m/s 683 mmHg 96%
    03:00 +14°C° 1.4 mm 2 m/s 683 mmHg 96%
    04:00 +14°C° 1.4 mm 1 m/s 683 mmHg 95%
    05:00 +14°C° 0.5 mm 1 m/s 683 mmHg 95%
    06:00 +13°C° 0.5 mm 1 m/s 683 mmHg 94%
    07:00 +13°C° 0.5 mm 1 m/s 683 mmHg 93%
    08:00 +14°C° 0.1 mm 1 m/s 684 mmHg 87%
    09:00 +15°C° 0.1 mm 2 m/s 684 mmHg 81%
    10:00 +16°C° 0.1 mm 2 m/s 685 mmHg 76%
    11:00 +17°C° 0.2 mm 2 m/s 685 mmHg 73%
    12:00 +17°C° 0.2 mm 3 m/s 685 mmHg 71%
    13:00 +17°C° 0.2 mm 3 m/s 686 mmHg 68%
    14:00 +16°C° 0.1 mm 3 m/s 685 mmHg 70%
    15:00 +14°C° 0.1 mm 3 m/s 685 mmHg 73%
    16:00 +13°C° 0.1 mm 3 m/s 685 mmHg 75%
    17:00 +12°C° 0.1 mm 3 m/s 685 mmHg 80%
    18:00 +12°C° 0.1 mm 2 m/s 685 mmHg 84%
    19:00 +12°C° 0.1 mm 2 m/s 685 mmHg 89%
    20:00 +12°C° 0.1 mm 2 m/s 686 mmHg 91%
    21:00 +10°C° 0.1 mm 2 m/s 686 mmHg 93%
    22:00 +10°C° 0.1 mm 2 m/s 686 mmHg 95%
    23:00 +10°C° 0 mm 2 m/s 686 mmHg 95%

    25 Septembrie, Miercuri

    Timp Temperatura Precipitaţii Vânt Presiune Umiditate
    00:00 +12°C° 0 mm 2 m/s 686 mmHg 95%
    01:00 +12°C° 0 mm 2 m/s 686 mmHg 95%
    02:00 +10°C° 0 mm 2 m/s 686 mmHg 95%
    03:00 +10°C° 0 mm 2 m/s 686 mmHg 95%
    04:00 +9°C° 0 mm 2 m/s 686 mmHg 95%
    05:00 +11°C° 0 mm 1 m/s 686 mmHg 93%
    06:00 +12°C° 0 mm 1 m/s 686 mmHg 91%
    07:00 +12°C° 0 mm 1 m/s 686 mmHg 89%
    08:00 +14°C° 0 mm 1 m/s 687 mmHg 80%
    09:00 +18°C° 0 mm 1 m/s 687 mmHg 70%
    10:00 +20°C° 0 mm 1 m/s 688 mmHg 60%
    11:00 +21°C° 0 mm 1 m/s 688 mmHg 56%
    12:00 +22°C° 0 mm 1 m/s 688 mmHg 51%
    13:00 +23°C° 0 mm 1 m/s 688 mmHg 47%
    14:00 +23°C° 0 mm 1 m/s 688 mmHg 50%
    15:00 +22°C° 0 mm 1 m/s 687 mmHg 52%
    16:00 +22°C° 0 mm 1 m/s 687 mmHg 55%
    17:00 +19°C° 0 mm 1 m/s 687 mmHg 64%
    18:00 +16°C° 0 mm 1 m/s 686 mmHg 73%
    19:00 +14°C° 0 mm 1 m/s 686 mmHg 82%
    20:00 +13°C° 0 mm 1 m/s 686 mmHg 83%
    21:00 +13°C° 0 mm 1 m/s 686 mmHg 84%
    22:00 +13°C° 0 mm 1 m/s 686 mmHg 85%
    23:00 +12°C° 0 mm 1 m/s 686 mmHg 84%
    Arată mai mult